Regional Weather Roundup
Issued by NWS

Home | Current Version | Previous Version | Text Only | Print | Product List | Glossary Off
Versions: 1 2 3 4 5 6 7 8 9 10 11 12 13 14 15 16 17 18 19 20 21 22 23 24 25 26 27 28 29 30 31 32 33 34 35 36 37 38 39 40 41 42 43 44 45 46 47 48 49 50

000
ASUS43 KOAX 200610
RWRNE

WEATHER ROUNDUP FOR NEBRASKA
NATIONAL WEATHER SERVICE OMAHA NE
1200 AM CST SAT JAN 20 2018

NOTES: SATELLITE DATA IS BEING USED TO AUGMENT CLOUD COVER ABOVE
       12000 FEET.
       "FAIR" INDICATES FEW OR NO CLOUDS BELOW 12,000 FEET WITH NO
       SIGNIFICANT WEATHER AND/OR OBSTRUCTIONS TO VISIBILITY.


NEZ001>004-019>022-054>056-200700-
NEBRASKA PANHANDLE

CITY           SKY/WX    TMP DP  RH WIND       PRES   REMARKS
SCOTTSBLUFF    CLOUDY    31  28  89 CALM      29.76F
6HR MIN TEMP:  31; 6HR MAX TEMP:  39;

ALLIANCE       CLOUDY    27  27 100 CALM      29.76S
6HR MIN TEMP:  26; 6HR MAX TEMP:  39;

CHADRON        PTCLDY    26  24  92 N3        29.77S
6HR MIN TEMP:  25; 6HR MAX TEMP:  38;

GORDON         FAIR      28  26  90 CALM      29.78S
6HR MIN TEMP:  26; 6HR MAX TEMP:  36;

KIMBALL        CLOUDY    41  23  48 CALM      29.76F
SIDNEY         CLOUDY    32  25  75 CALM      29.77R
6HR MIN TEMP:  32; 6HR MAX TEMP:  40;

$$

NEZ057>060-069>072-079>082-200700-
SOUTHWEST NEBRASKA

CITY           SKY/WX    TMP DP  RH WIND       PRES   REMARKS
NORTH PLATTE   CLOUDY    34  29  82 CALM      29.77F
6HR MIN TEMP:  32; 6HR MAX TEMP:  42;

IMPERIAL       CLOUDY    31  28  89 N7        29.76R WCI  24
6HR MIN TEMP:  31; 6HR MAX TEMP:  43;

LEXINGTON      CLOUDY    34  30  87 N8        29.75F WCI  27
MCCOOK         MOCLDY    34  28  79 N7        29.73F WCI  28
6HR MIN TEMP:  30; 6HR MAX TEMP:  53;

OGALLALA       CLOUDY    37  31  82 NE3       29.78R
$$

NEZ005>010-023>029-035>040-094-200700-
NORTH CENTRAL NEBRASKA

CITY           SKY/WX    TMP DP  RH WIND       PRES   REMARKS
VALENTINE      CLEAR     30  27  88 SW9       29.79R WCI  22
6HR MIN TEMP:  29; 6HR MAX TEMP:  41;

AINSWORTH      PTCLDY    31  30  96 W6        29.80R WCI  25
BROKEN BOW     CLOUDY    37  31  78 N5        29.78R WCI  33
6HR MIN TEMP:  36; 6HR MAX TEMP:  43;

O`NEILL        CLOUDY    33  31  92 W5        29.78S WCI  29
ORD            CLOUDY    32  30  92 NW7       29.77R WCI  26
6HR MIN TEMP:  32; 6HR MAX TEMP:  45;

THEDFORD       CLOUDY    32  30  92 NW3       29.80S FOG
$$

NEZ041-046>049-061>064-073>077-083>087-200700-
SOUTH CENTRAL NEBRASKA

CITY           SKY/WX    TMP DP  RH WIND       PRES   REMARKS
GRAND ISLAND   CLOUDY    32  30  92 N9        29.76S WCI  24
6HR MIN TEMP:  29; 6HR MAX TEMP:  39;

AURORA         CLOUDY    32  29  87 N9        29.75F WCI  24
HASTINGS       CLOUDY    29  24  82 CALM      29.76R
6HR MIN TEMP:  27; 6HR MAX TEMP:  46;

HEBRON         CLOUDY    29  25  86 CALM      29.77R
HOLDREGE       CLOUDY    32  30  90 N9        29.73S WCI  24
KEARNEY        CLOUDY    35  31  85 N14       29.75S WCI  26
YORK           CLOUDY    28  27  93 CALM      29.76S
$$

NEZ011>018-030>034-042>045-200700-
NORTHEAST NEBRASKA

CITY           SKY/WX    TMP DP  RH WIND       PRES   REMARKS
NORFOLK        CLOUDY    31  29  92 W3        29.76R
6HR MIN TEMP:  31; 6HR MAX TEMP:  43;

ALBION         CLOUDY    33  31  91 NW3       29.77R
BLAIR          CLOUDY    36  28  73 CALM      29.76S
COLUMBUS       CLOUDY    26  24  92 W6        29.77S WCI  19
FREMONT        CLOUDY    31  26  82 W3        29.77S
TEKAMAH        CLOUDY    33  27  78 NW6       29.77R WCI  28
6HR MIN TEMP:  31; 6HR MAX TEMP:  40;

WAYNE          CLOUDY    29  28  96 CALM      29.76S
$$

NEZ050>053-065>068-078-088>093-200700-
SOUTHEAST NEBRASKA

CITY           SKY/WX    TMP DP  RH WIND       PRES   REMARKS
LINCOLN        CLOUDY    28  23  81 NW3       29.79R
6HR MIN TEMP:  25; 6HR MAX TEMP:  42;

OMAHA EPPLEY   CLOUDY    33  27  78 SE5       29.78R WCI  29
6HR MIN TEMP:  31; 6HR MAX TEMP:  42;

BEATRICE       CLOUDY    31  27  86 SE5       29.77F WCI  26
FALLS CITY     CLOUDY    32  25  75 S3        29.80R
6HR MIN TEMP:  32; 6HR MAX TEMP:  43;

NEBRASKA CITY  CLOUDY    34  29  83 S7        29.78S WCI  28
PLATTSMOUTH    PTCLDY    37  28  72 SW5       29.77S WCI  33
$$

NEZ044-045-051>053-067-200700-
OMAHA AREA

CITY           SKY/WX    TMP DP  RH WIND       PRES   REMARKS
OMAHA EPPLEY   CLOUDY    33  27  78 SE5       29.78R WCI  29
6HR MIN TEMP:  31; 6HR MAX TEMP:  42;

BLAIR          CLOUDY    36  28  73 CALM      29.76S
FREMONT        CLOUDY    31  26  82 W3        29.77S
MILLARD        CLOUDY    30  26  86 CALM      29.78R
OFFUTT AFB     CLOUDY    27  24  90 CALM      29.77S
PLATTSMOUTH    PTCLDY    37  28  72 SW5       29.77S WCI  33
WAHOO          FAIR      29  25  84 CALM      29.77S
$$




USA.gov is the U.S. government's official web portal to all federal, state and local government web resources and services.